Regional Weather Roundup
Issued by NWS

Home | Current Version | Previous Version | Graphics & Text | Print | Product List | Glossary On
Versions: 1 2 3 4 5 6 7 8 9 10 11 12 13 14 15 16 17 18 19 20 21 22 23 24 25 26 27 28 29 30 31 32 33 34 35 36 37 38 39 40 41 42 43 44 45 46 47 48 49 50
000
ASUS43 KLOT 011308
RWRIL

ILLINOIS REGIONAL WEATHER ROUNDUP
NATIONAL WEATHER SERVICE CHICAGO/ROMEOVILLE IL
800 AM CDT SUN MAY 01 2016

NOTE: "FAIR" INDICATES FEW OR NO CLOUDS BELOW 12,000 FEET WITH NO
SIGNIFICANT WEATHER AND/OR OBSTRUCTIONS TO VISIBILITY.

* THESE STATIONS ARE NOT UNDER NWS QUALITY CONTROL. THEY ALSO MAY NOT
  REPORT WEATHER SUCH AS PRECIPITATION OR FOG.

ILZ001-002-007-009-015-016-024-011400-
NORTHWEST ILLINOIS

CITY           SKY/WX    TMP DP  RH WIND       PRES   REMARKS
MOLINE         CLOUDY    48  45  89 NE12      29.97R FOG
STERLING*      CLOUDY    46  45  93 NE9       29.99R
SAVANNA*       CLOUDY    45  43  93 NE13      30.00R
$$

ILZ003-004-008-010-011-017-018-011400-
NORTH CENTRAL ILLINOIS

CITY           SKY/WX    TMP DP  RH WIND       PRES   REMARKS
ROCKFORD       CLOUDY    46  43  89 NE16      30.01R
FREEPORT*      CLOUDY    43  42  97 NE15      30.02R
ROCHELLE*      CLOUDY    44  43  97 NE15      30.00R FOG
DE KALB*       CLOUDY    44  44  99 NE13      29.99R FOG
$$

ILZ005-006-012>014-019>023-011400-
NORTHEAST ILLINOIS

CITY           SKY/WX    TMP DP  RH WIND       PRES   REMARKS
CHICAGO-OHARE  FOG       42  42 100 N13       29.98R VSB 1/2
CHICAGO-MIDWAY CLOUDY    45  43  93 N12       29.97R FOG
AURORA         CLOUDY    46  44  93 NE10      29.98R FOG
LANSING*       FOG       46  46 100 N8        29.96R VSB 1/2
JOLIET*        FOG       47  47  99 N7        29.97R VSB 1
WAUKEGAN       FOG       42  42 100 N13G21    29.99R VSB 1
DUPAGE AIRPORT CLOUDY    44  42  93 NE15      29.98R FOG
KANKAKEE*      CLOUDY    49  48  97 N6        29.94S FOG
WHEELING       CLOUDY    43  42  97 N10       30.00R FOG
MORRIS*        FOG       46  46  97 NE5       29.97R VSB 1/2
ROMEOVILLE*    FOG       45  45  99 NE13      29.97R VSB 3/4
NORTHERLY ISL    N/A     43  42  97 N14         N/A
NORTHERLY ISL    N/A     43  42  97 N14         N/A
$$

LMZ740>746-011400-
SOUTHERN LAKE MICHIGAN

STATION/POSITION SKY/WX   TEMP    WIND        PRES    VSBY  WAVE
                          AIR SEA DIR/SP/G                  HT/PER
                          (F)     (DEG/KT/KT) (MB)    (MI)  (FT/S)
SOUTHERN BUOY              42 40   40/ 17/ 19 1014.8F         3/ 4
HARRISON CRIB              43      30/ 19/ 21   N/A
BURNHAM HARBOR             43     350/  8/ 13   N/A
CALUMET HARBOR             44      10/ 12/ 17 1013.7R
BURNS HARBOR               45      20/ 11/ 13 1014.9R
MICHIGAN CITY              45     350/ 12/ 13   N/A
ST. JOSEPH                 48 49                N/A           2/ 5
$$

ILZ025>027-034>036-040-047-049-050-058-095>099-011400-
WEST-CENTRAL ILLINOIS

CITY           SKY/WX    TMP DP  RH WIND       PRES   REMARKS
QUINCY         CLOUDY    50  49  96 NE12      29.93S FOG
GALESBURG*     CLOUDY    47  47  99 NE9       29.96R FOG
MACOMB*        CLOUDY    48  48 100 NE9       29.97S FOG
JACKSONVILLE*  CLOUDY    52  51  97 N9        29.93R FOG
PITTSFIELD*    CLOUDY    53  53 100 N7        29.93R FOG
$$

ILZ028>032-037-038-041>044-048-051>054-059>061-011400-
CENTRAL ILLINOIS

CITY           SKY/WX    TMP DP  RH WIND       PRES   REMARKS
PONTIAC        CLOUDY    50  50 100 N10       29.95S FOG
BLOOMINGTON    FOG       50  50 100 NE10      29.94R VSB 1/8
DECATUR        FOG       55  53  93 N6        29.92R VSB 1
PEORIA         CLOUDY    49  48  97 NE6       29.95R FOG
LACON*         CLOUDY    47  46  96 NE5       29.96R FOG
LINCOLN*       CLOUDY    51  51 100 N8        29.93R FOG
SPRINGFIELD    CLOUDY    53  52  96 N9        29.93R FOG
TAYLORVILLE    CLOUDY    54  54 100 N7        29.93R FOG
$$

ILZ033-039-045-046-055>057-062-063-011400-
EAST-CENTRAL ILLINOIS

CITY           SKY/WX    TMP DP  RH WIND       PRES   REMARKS
CHAMPAIGN      FOG       54  54 100 N5        29.92R VSB 1/4
RANTOUL*       CLOUDY    54  53  99 N9        29.91S FOG
MATTOON        SUNNY     59  54  83 N6        29.90R
PARIS*         MOSUNNY   60  57  90 N3        29.92R
$$

ILZ079-100>102-011400-
SOUTHWEST ILLINOIS

CITY           SKY/WX    TMP DP  RH WIND       PRES   REMARKS
ALTON          MOSUNNY   59  57  94 CALM      29.91R
BELLEVILLE     CLOUDY    60  60 100 SW2       29.89S
CAHOKIA*       CLOUDY    60  57  89 CALM      29.90R
SPARTA*        PTSUNNY   59  58  95 CALM      29.91S
$$

ILZ064>066-069>071-074>076-080>082-084>086-088>090-092>094-011400-
SOUTH-CENTRAL ILLINOIS

CITY           SKY/WX    TMP DP  RH WIND       PRES   REMARKS
CARBONDALE     SUNNY     62  56  80 SW5       29.90R
CAIRO*         PTSUNNY   65  64  96 SE3       29.90S
EFFINGHAM*     SUNNY     61  59  94 N6        29.91S
MARION         MOSUNNY   64  57  77 S5        29.91R
MT. VERNON     SUNNY     63  55  77 SW7       29.91R
CENTRALIA*     SUNNY     62  60  92 SW5       29.90R
SALEM*         SUNNY     63  59  85 CALM      29.90R
METROPOLIS*    CLOUDY    64  61  89 CALM      29.92R
$$

ILZ067-068-072-073-078-083-087-091-011400-
SOUTHEAST ILLINOIS

CITY           SKY/WX    TMP DP  RH WIND       PRES   REMARKS
LAWRENCEVILLE  SUNNY     63  59  87 SE8         N/A
FLORA*         SUNNY     64  59  83 CALM      29.91R
FAIRFIELD*     MOSUNNY   61  58  91 CALM      29.89R
HARRISBURG*    SUNNY     63  59  85 CALM      29.90R
ROBINSON*      SUNNY     61  59  92 CALM      29.90S
CARMI*         SUNNY     62  59  90 S5        29.89S
$$

ABBREVIATIONS USED IN REMARKS
   TC - TEMPERATURE IN CELSIUS
  WCI - WIND CHILL INDEX
   HX - HEAT INDEX
  VSB - VISIBILITY
$$




USA.gov is the U.S. government's official web portal to all federal, state and local government web resources and services.